Hourly Weather Lucknow

Today, 29 September, Tuesday

Time Temperature Precipitation Wind Pressure Humidity
00:00 +26°C° 0 mm 0 mps 742 mmHg 55%
01:00 +26°C° 0 mm 0 mps 741 mmHg 57%
02:00 +25°C° 0 mm 0 mps 741 mmHg 58%
03:00 +25°C° 0 mm 0 mps 741 mmHg 60%
04:00 +27°C° 0 mm 1 mps 741 mmHg 61%
05:00 +26°C° 0 mm 1 mps 742 mmHg 67%
06:00 +28°C° 0 mm 1 mps 742 mmHg 64%
07:00 +29°C° 0 mm 1 mps 743 mmHg 61%
08:00 +30°C° 0 mm 1 mps 743 mmHg 58%
09:00 +32°C° 0 mm 2 mps 743 mmHg 52%
10:00 +34°C° 0 mm 2 mps 743 mmHg 46%
11:00 +36°C° 0 mm 3 mps 743 mmHg 38%
12:00 +36°C° 0 mm 3 mps 742 mmHg 36%
13:00 +37°C° 0 mm 3 mps 742 mmHg 33%
14:00 +37°C° 0 mm 4 mps 741 mmHg 31%
15:00 +36°C° 0 mm 3 mps 740 mmHg 34%
16:00 +34°C° 0 mm 3 mps 740 mmHg 38%
17:00 +32°C° 0 mm 2 mps 739 mmHg 41%
18:00 +31°C° 0 mm 2 mps 740 mmHg 40%
19:00 +30°C° 0 mm 2 mps 740 mmHg 39%
20:00 +29°C° 0 mm 2 mps 741 mmHg 39%
21:00 +29°C° 0 mm 1 mps 741 mmHg 40%
22:00 +28°C° 0 mm 1 mps 741 mmHg 42%
23:00 +28°C° 0 mm 1 mps 741 mmHg 43%

Tomorrow, 30 September, Wednesday

Time Temperature Precipitation Wind Pressure Humidity
00:00 +27°C° 0 mm 1 mps 740 mmHg 44%
01:00 +27°C° 0 mm 1 mps 740 mmHg 46%
02:00 +26°C° 0 mm 1 mps 740 mmHg 47%
03:00 +26°C° 0 mm 1 mps 740 mmHg 48%
04:00 +26°C° 0 mm 1 mps 740 mmHg 49%
05:00 +26°C° 0 mm 1 mps 740 mmHg 50%
06:00 +27°C° 0 mm 1 mps 741 mmHg 49%
07:00 +28°C° 0 mm 1 mps 742 mmHg 47%
08:00 +30°C° 0 mm 1 mps 742 mmHg 46%
09:00 +31°C° 0 mm 1 mps 742 mmHg 42%
10:00 +33°C° 0 mm 1 mps 742 mmHg 38%
11:00 +34°C° 0 mm 1 mps 742 mmHg 33%
12:00 +36°C° 0 mm 2 mps 741 mmHg 31%
13:00 +37°C° 0 mm 2 mps 741 mmHg 29%
14:00 +37°C° 0 mm 3 mps 740 mmHg 27%
15:00 +36°C° 0 mm 2 mps 739 mmHg 31%
16:00 +34°C° 0 mm 2 mps 739 mmHg 35%
17:00 +32°C° 0 mm 2 mps 738 mmHg 39%
18:00 +31°C° 0 mm 1 mps 739 mmHg 40%
19:00 +30°C° 0 mm 1 mps 740 mmHg 42%
20:00 +29°C° 0 mm 1 mps 740 mmHg 43%
21:00 +28°C° 0 mm 1 mps 740 mmHg 44%
22:00 +28°C° 0 mm 1 mps 740 mmHg 44%
23:00 +28°C° 0 mm 1 mps 740 mmHg 45%

Day after tomorrow, 1 October, Thursday

Time Temperature Precipitation Wind Pressure Humidity
00:00 +27°C° 0 mm 1 mps 740 mmHg 46%
01:00 +27°C° 0 mm 1 mps 740 mmHg 48%
02:00 +26°C° 0 mm 1 mps 739 mmHg 49%
03:00 +26°C° 0 mm 1 mps 739 mmHg 49%
04:00 +24°C° 0 mm 0 mps 739 mmHg 50%
05:00 +24°C° 0 mm 0 mps 739 mmHg 50%
06:00 +25°C° 0 mm 0 mps 740 mmHg 48%
07:00 +28°C° 0 mm 1 mps 741 mmHg 46%
08:00 +30°C° 0 mm 1 mps 741 mmHg 44%
09:00 +31°C° 0 mm 1 mps 741 mmHg 41%
10:00 +34°C° 0 mm 2 mps 741 mmHg 37%
11:00 +36°C° 0 mm 2 mps 741 mmHg 34%
12:00 +36°C° 0 mm 2 mps 740 mmHg 32%
13:00 +37°C° 0 mm 3 mps 740 mmHg 30%
14:00 +38°C° 0 mm 3 mps 739 mmHg 28%
15:00 +36°C° 0 mm 2 mps 739 mmHg 32%
16:00 +35°C° 0 mm 2 mps 738 mmHg 36%
17:00 +32°C° 0 mm 1 mps 738 mmHg 40%
18:00 +31°C° 0 mm 1 mps 739 mmHg 42%
19:00 +30°C° 0 mm 1 mps 739 mmHg 44%
20:00 +29°C° 0 mm 1 mps 739 mmHg 46%
21:00 +29°C° 0 mm 1 mps 739 mmHg 48%
22:00 +28°C° 0 mm 1 mps 739 mmHg 50%
23:00 +28°C° 0 mm 1 mps 739 mmHg 51%

2 October, Friday

Time Temperature Precipitation Wind Pressure Humidity
00:00 +28°C° 0 mm 1 mps 739 mmHg 53%
01:00 +25°C° 0 mm 0 mps 739 mmHg 54%
02:00 +25°C° 0 mm 0 mps 739 mmHg 55%
03:00 +25°C° 0 mm 0 mps 739 mmHg 56%
04:00 +24°C° 0 mm 0 mps 739 mmHg 57%
05:00 +24°C° 0 mm 0 mps 739 mmHg 58%
06:00 +25°C° 0 mm 0 mps 740 mmHg 56%
07:00 +27°C° 0 mm 0 mps 740 mmHg 53%
08:00 +30°C° 0 mm 1 mps 741 mmHg 51%
09:00 +32°C° 0 mm 1 mps 741 mmHg 47%
10:00 +33°C° 0 mm 1 mps 741 mmHg 44%
11:00 +35°C° 0 mm 1 mps 741 mmHg 41%
12:00 +36°C° 0 mm 1 mps 740 mmHg 38%
13:00 +36°C° 0 mm 1 mps 740 mmHg 35%
14:00 +37°C° 0 mm 1 mps 739 mmHg 32%
15:00 +36°C° 0 mm 1 mps 739 mmHg 36%
16:00 +34°C° 0 mm 1 mps 739 mmHg 41%
17:00 +33°C° 0 mm 1 mps 739 mmHg 45%
18:00 +32°C° 0 mm 1 mps 739 mmHg 48%
19:00 +31°C° 0 mm 1 mps 740 mmHg 50%
20:00 +30°C° 0 mm 1 mps 740 mmHg 53%
21:00 +29°C° 0 mm 1 mps 740 mmHg 56%
22:00 +29°C° 0 mm 1 mps 740 mmHg 59%
23:00 +28°C° 0 mm 1 mps 740 mmHg 63%

3 October, Saturday

Time Temperature Precipitation Wind Pressure Humidity
00:00 +28°C° 0 mm 1 mps 740 mmHg 64%
01:00 +28°C° 0 mm 2 mps 740 mmHg 65%
02:00 +27°C° 0 mm 2 mps 740 mmHg 67%
03:00 +27°C° 0 mm 1 mps 740 mmHg 68%
04:00 +26°C° 0 mm 1 mps 740 mmHg 69%
05:00 +26°C° 0 mm 1 mps 740 mmHg 70%
06:00 +27°C° 0 mm 1 mps 741 mmHg 66%
07:00 +29°C° 0 mm 1 mps 741 mmHg 62%
08:00 +28°C° 0 mm 0 mps 742 mmHg 59%
09:00 +30°C° 0 mm 0 mps 742 mmHg 53%
10:00 +32°C° 0 mm 0 mps 742 mmHg 48%
11:00 +33°C° 0 mm 0 mps 742 mmHg 42%
12:00 +36°C° 0 mm 1 mps 741 mmHg 39%
13:00 +37°C° 0 mm 1 mps 741 mmHg 35%
14:00 +38°C° 0 mm 2 mps 740 mmHg 31%
15:00 +36°C° 0 mm 1 mps 740 mmHg 36%
16:00 +34°C° 0 mm 1 mps 740 mmHg 40%
17:00 +33°C° 0 mm 1 mps 740 mmHg 44%
18:00 +32°C° 0 mm 1 mps 740 mmHg 47%
19:00 +31°C° 0 mm 1 mps 741 mmHg 49%
20:00 +30°C° 0 mm 1 mps 741 mmHg 51%
21:00 +30°C° 0 mm 1 mps 741 mmHg 53%
22:00 +29°C° 0 mm 1 mps 741 mmHg 55%
23:00 +29°C° 0 mm 1 mps 742 mmHg 57%

4 October, Sunday

Time Temperature Precipitation Wind Pressure Humidity
00:00 +28°C° 0 mm 1 mps 741 mmHg 60%
01:00 +28°C° 0 mm 1 mps 741 mmHg 63%
02:00 +27°C° 0 mm 1 mps 741 mmHg 66%
03:00 +27°C° 0 mm 1 mps 741 mmHg 68%
04:00 +26°C° 0 mm 1 mps 741 mmHg 69%
05:00 +26°C° 0 mm 1 mps 741 mmHg 71%
06:00 +28°C° 0 mm 1 mps 742 mmHg 66%
07:00 +29°C° 0 mm 1 mps 743 mmHg 62%
08:00 +28°C° 0 mm 0 mps 744 mmHg 58%
09:00 +30°C° 0 mm 0 mps 744 mmHg 52%
10:00 +32°C° 0 mm 0 mps 744 mmHg 46%
11:00 +34°C° 0 mm 0 mps 743 mmHg 39%
12:00 +36°C° 0 mm 1 mps 743 mmHg 35%
13:00 +37°C° 0 mm 1 mps 742 mmHg 31%
14:00 +39°C° 0 mm 2 mps 741 mmHg 26%
15:00 +37°C° 0 mm 2 mps 741 mmHg 30%
16:00 +34°C° 0 mm 1 mps 740 mmHg 34%
17:00 +33°C° 0 mm 1 mps 740 mmHg 38%
18:00 +32°C° 0 mm 1 mps 740 mmHg 40%
19:00 +31°C° 0 mm 1 mps 741 mmHg 42%
20:00 +30°C° 0 mm 1 mps 741 mmHg 44%
21:00 +29°C° 0 mm 1 mps 741 mmHg 46%
22:00 +27°C° 0 mm 0 mps 741 mmHg 47%
23:00 +26°C° 0 mm 0 mps 741 mmHg 48%
Show more

We Need Your Consent

Meteoprog and our Service Providers may store and access personal data such as cookies, device identifiers or other similar technologies on your device and process such data to personalise content and ads, as well as provide social media features and to analyse the traffic.

  • Store and/or access information on your device

    Cookies, device identifiers or other information can be stored or accessed on your device for the purposes indicated above.

  • Personalised ads and content, ad and content measurement, audience insights, and products development

    Ads and content can be personalised based on a profile. More data can be added to better personalise ads and content. Ad and content performance can be measured. Insights about the audience who saw the ads and content can be derived. Such data can be used to develop or improve user’s experience, systems and software.

By clicking ‘I Agree’ you will allow the use of indicated cookies, device identifiers, web beacons or other similar technologies. Your settings can be changed in the browser on your device.

For certain purposes, legitimate interests may be relied on, rather than consent. You can read more about this in our Privacy and Cookie Policy.